Location: Rounton
(54.4000°N, 1.3500°W)
Time: 23:31:44
(UTC+00:00)

Vanguard 2 - All Passes

Search period start: 29 November 2021 00:00
Search period end: 09 December 2021 00:00
Orbit: 554 x 2936 km, 32.9° (Epoch: 29 November)

Date Brightness Start Highest point End Pass type
(mag) Time Alt. Az. Time Alt. Az. Time Alt. Az.
29 Nov - 14:46:51 10° S 14:49:09 12° SSE 14:51:46 10° SE daylight
29 Nov - 16:50:40 10° SW 16:56:21 20° S 17:03:55 10° SE visible
29 Nov - 18:58:12 10° SW 19:04:32 18° SSW 19:12:30 10° SSE visible
30 Nov - 15:03:07 10° S 15:06:12 13° SSE 15:09:52 10° SE daylight
30 Nov - 17:08:07 10° SW 17:13:35 18° S 17:20:47 10° SE visible
30 Nov - 19:16:41 10° SW 19:21:47 14° SSW 19:27:54 10° S visible
01 Dec - 15:19:54 10° SSW 15:23:19 14° SSE 15:27:28 10° SE daylight
01 Dec - 17:25:48 10° SW 17:30:51 17° S 17:37:19 10° SSE visible
01 Dec - 19:36:42 10° SW 19:39:03 11° SSW 19:41:34 10° SSW visible
02 Dec - 15:37:02 10° SSW 15:40:29 14° S 15:44:43 10° SE daylight
02 Dec - 17:43:49 10° SW 17:48:08 14° S 17:53:24 10° SSE visible
03 Dec - 15:54:26 10° SSW 15:57:43 14° S 16:01:39 10° SSE daylight
03 Dec - 18:02:39 10° SSW 18:05:26 12° SSW 18:08:33 10° S visible
04 Dec - 16:12:14 10° SSW 16:14:59 12° S 16:18:09 10° SSE daylight
05 Dec - 16:30:58 10° SSW 16:32:15 10° S 16:33:37 10° S visible
